TimeMDT,TemperatureF,Dew PointF,Humidity,Sea Level PressureIn,VisibilityMPH,Wind Direction,Wind SpeedMPH,Gust SpeedMPH,PrecipitationIn,Events,Conditions,WindDirDegrees,DateUTC
12:53 AM,52.0,37.9,59,30.06,10.0,Calm,Calm,-,N/A,,Clear,0,2012-09-30 06:53:00
1:53 AM,53.1,35.1,50,30.07,10.0,WNW,3.5,-,N/A,,Clear,300,2012-09-30 07:53:00
2:53 AM,50.0,37.9,63,30.06,10.0,ESE,5.8,-,N/A,,Clear,110,2012-09-30 08:53:00
3:53 AM,50.0,36.0,59,30.07,10.0,ESE,6.9,-,N/A,,Clear,120,2012-09-30 09:53:00
4:53 AM,48.9,37.0,64,30.09,10.0,Calm,Calm,-,N/A,,Clear,0,2012-09-30 10:53:00
5:53 AM,46.0,36.0,68,30.09,10.0,ESE,4.6,-,N/A,,Clear,120,2012-09-30 11:53:00
6:53 AM,46.0,34.0,63,30.12,10.0,Calm,Calm,-,N/A,,Mostly Cloudy,0,2012-09-30 12:53:00
7:53 AM,46.9,35.1,63,30.14,10.0,Calm,Calm,-,N/A,,Mostly Cloudy,0,2012-09-30 13:53:00
8:53 AM,51.1,35.1,54,30.14,10.0,Calm,Calm,-,N/A,,Scattered Clouds,0,2012-09-30 14:53:00
9:53 AM,57.9,36.0,44,30.14,10.0,Calm,Calm,-,N/A,,Clear,0,2012-09-30 15:53:00
10:53 AM,63.0,37.0,38,30.14,10.0,Calm,Calm,-,N/A,,Clear,0,2012-09-30 16:53:00
11:53 AM,70.0,37.0,30,30.10,10.0,Calm,Calm,-,N/A,,Clear,0,2012-09-30 17:53:00
12:53 PM,72.0,37.9,29,30.09,10.0,NE,3.5,-,N/A,,Clear,40,2012-09-30 18:53:00
1:53 PM,75.9,37.0,24,30.05,10.0,NW,5.8,-,N/A,,Clear,320,2012-09-30 19:53:00
2:53 PM,79.0,36.0,21,30.04,10.0,NNW,12.7,17.3,N/A,,Clear,330,2012-09-30 20:53:00
3:53 PM,77.0,36.0,23,30.05,10.0,NNW,19.6,24.2,N/A,,Clear,340,2012-09-30 21:53:00
4:53 PM,75.9,34.0,22,30.05,10.0,North,9.2,23.0,N/A,,Clear,350,2012-09-30 22:53:00
5:53 PM,75.0,32.0,21,30.07,10.0,NNW,15.0,20.7,N/A,,Clear,340,2012-09-30 23:53:00
6:53 PM,71.1,32.0,24,30.09,10.0,NW,13.8,-,N/A,,Clear,320,2012-10-01 00:53:00
7:53 PM,69.1,32.0,25,30.13,10.0,NNW,12.7,-,N/A,,Clear,330,2012-10-01 01:53:00
8:53 PM,64.9,32.0,29,30.15,10.0,NW,8.1,-,N/A,,Clear,320,2012-10-01 02:53:00
9:53 PM,62.1,33.1,34,30.16,10.0,NW,11.5,-,N/A,,Clear,320,2012-10-01 03:53:00
10:53 PM,61.0,36.0,39,30.17,10.0,NW,12.7,-,N/A,,Clear,320,2012-10-01 04:53:00
11:53 PM,61.0,37.0,41,30.17,10.0,NW,17.3,-,N/A,,Clear,320,2012-10-01 05:53:00